Flag for Germany Weather past 2 weeks in Dachau, Bavaria, Germany

Now
43 °F

Clear.


Feels Like: 40 °F
Forecast: 34 / 46 °F
Wind: 5 mph from West

Location: Munich / Franz Josef Strauss Airport

Current Time: Dec 23, 2014 at 6:17:42 AM

Latest Report: Dec 23, 2014 at 5:50 AM


Visibility: 10 mi

Pressure: 30.24 "Hg

Humidity: 53%

Dew point: 27 °F

Location of DachauLocation

Historic Weather in Dachau — Graph

°F

Dachau temperature yesterday

Maximum temperature yesterday: 48 °F (at 5:20 PM)
Minimum temperature yesterday: 36 °F (at 1:20 AM)
Average temperature yesterday: 42 °F

Past Weeks' High & Low Weather Summary

 TemperatureHumidityPressure
High55 °F (Dec 14, 12:20 PM)100% (Dec 8, 6:20 AM)30.48 "Hg (Dec 8, 6:20 AM)
Low25 °F (Dec 9, 7:50 PM)46% (Dec 23, 1:50 AM)29.80 "Hg (Dec 12, 6:20 PM)
Average41 °F82%30.09 "Hg
* Reported Dec 8 4:20 AM — Dec 23 4:50 AM, Dachau, Weather by CustomWeather, © 2014

Note: Actual official high and low records may vary slightly from our data, if they occured in-between our weather recording intervals... More about our weather records

Advertising

Dachau weather history for previous 24 hours

 ConditionsComfort  
Time TempWeatherWind HumidityBarometerVisibility
4:50 AM
Dec 23
43 °FClear.7 mph53%30.24 "Hg10 mi
4:20 AM41 °FClear.12 mph57%30.24 "Hg10 mi
3:50 AM43 °FClear.8 mph53%30.24 "Hg10 mi
3:20 AM45 °FClear.8 mph49%30.24 "Hg10 mi
2:50 AM45 °FPassing clouds.7 mph49%30.24 "HgN/A
2:20 AM46 °FClear.8 mph46%30.21 "Hg10 mi
1:50 AM46 °FClear.10 mph46%30.21 "Hg10 mi
1:20 AM45 °FClear.14 mph53%30.21 "Hg10 mi
12:50 AM46 °FClear.13 mph50%30.21 "Hg10 mi
12:20 AM46 °FClear.12 mph50%30.24 "Hg10 mi
11:20 PM
Dec 22
46 °FClear.14 mph53%30.24 "Hg10 mi
10:50 PM46 °FClear.16 mph57%30.24 "Hg10 mi
10:20 PM48 °FClear.13 mph50%30.24 "Hg10 mi
9:50 PM48 °FClear.12 mph54%30.24 "Hg10 mi
9:20 PM46 °FClear.16 mph57%30.24 "Hg10 mi
8:50 PM46 °FClear.18 mph57%30.24 "Hg10 mi
8:20 PM48 °FClear.17 mph54%30.24 "Hg10 mi
7:50 PM48 °FClear.22 mph54%30.24 "Hg10 mi
7:20 PM48 °FClear.24 mph58%30.21 "Hg10 mi
6:50 PM48 °FClear.21 mph58%30.24 "Hg10 mi
6:20 PM48 °FClear.17 mph54%30.21 "Hg10 mi
5:50 PM48 °FClear.20 mph54%30.21 "Hg10 mi
5:20 PM48 °FClear.23 mph58%30.21 "Hg10 mi
4:50 PM46 °FClear.20 mph62%30.24 "Hg10 mi
4:20 PM46 °FSunny.20 mph62%30.24 "Hg10 mi
3:50 PM46 °FSunny.20 mph66%30.24 "Hg10 mi
3:20 PM46 °FSunny.18 mph66%30.24 "Hg10 mi
2:50 PM46 °FBroken clouds.20 mph66%30.24 "HgN/A
2:20 PM46 °FBroken clouds.17 mph66%30.24 "HgN/A
1:50 PM46 °FBroken clouds.20 mph66%30.27 "HgN/A
1:20 PM46 °FPartly sunny.25 mph62%30.27 "HgN/A
12:50 PM45 °FPartly sunny.21 mph66%30.27 "HgN/A
12:20 PM43 °FBroken clouds.22 mph71%30.27 "HgN/A
11:50 AM43 °FBroken clouds.24 mph71%30.30 "HgN/A
11:20 AM43 °FBroken clouds.21 mph71%30.30 "HgN/A
10:50 AM41 °FPartly sunny.18 mph76%30.30 "HgN/A
10:20 AM41 °FBroken clouds.22 mph76%30.30 "HgN/A
9:50 AM39 °FBroken clouds.20 mph81%30.30 "HgN/A
9:20 AM37 °FPartly sunny.14 mph81%30.33 "HgN/A
8:50 AM36 °FPartly sunny.12 mph87%30.33 "HgN/A
8:20 AM36 °FBroken clouds.9 mph87%30.33 "HgN/A
7:50 AM36 °FPartly cloudy.10 mph87%30.33 "HgN/A
7:20 AM36 °FPassing clouds.12 mph87%30.33 "HgN/A
6:50 AM36 °FPassing clouds.9 mph87%30.33 "HgN/A
6:20 AM36 °FPassing clouds.12 mph87%30.33 "HgN/A
Weather by CustomWeather, © 2014

See weather overviewHow to use our weather pages